Location: Sungai Bunut
(2.6333°N, 113.7333°E)
Time: 16:40:06
(UTC+00:00)

Altair - Pass Details

Date: 04 December 2023
Orbit: 1501 x 1682 km, 47.2° (Epoch: 24 February)

Event Time Altitude Azimuth Distance (km) Brightness Sun altitude
Rises 08:03:00 0° 340° (NNW) 4,622 9.9 29.1°
Reaches altitude 10° 08:06:38 10° 352° (N) 3,640 9.4 28.3°
Maximum altitude 08:14:06 28° 48° (NE) 2,529 8.4 26.6°
Drops below altitude 10° 08:21:39 10° 103° (ESE) 3,697 9.2 25.0°
Sets 08:25:19 0° 114° (ESE) 4,705 9.7 24.1°
